Time,TemperatureF,DewpointF,PressureIn,WindDirection,WindDirectionDegrees,WindSpeedMPH,WindSpeedGustMPH,Humidity,HourlyPrecipIn,Conditions,Clouds,dailyrainin,SoftwareType,DateUTC
2014-11-26 00:07:00,47.9,37.0,30.07,West,271,0.0,3.0,66,0.00,,,0.00,weatherlink.com 1.10,2014-11-26 05:07:00,
2014-11-26 00:23:00,48.3,35.0,30.08,West,271,4.0,8.0,61,0.00,,,0.00,weatherlink.com 1.10,2014-11-26 05:23:00,
2014-11-26 00:37:00,48.6,34.0,30.07,West,277,4.0,9.0,58,0.00,,,0.00,weatherlink.com 1.10,2014-11-26 05:37:00,
2014-11-26 00:52:00,48.6,34.0,30.05,WNW,286,7.0,9.0,58,0.00,,,0.00,weatherlink.com 1.10,2014-11-26 05:52:00,
2014-11-26 01:07:00,48.6,34.0,30.08,WNW,283,7.0,8.0,57,0.00,,,0.00,weatherlink.com 1.10,2014-11-26 06:07:00,
2014-11-26 01:22:00,48.7,34.0,30.08,West,281,4.0,8.0,57,0.00,,,0.00,weatherlink.com 1.10,2014-11-26 06:22:00,
2014-11-26 01:36:00,48.9,33.0,30.09,West,281,2.0,7.0,55,0.00,,,0.00,weatherlink.com 1.10,2014-11-26 06:36:00,
2014-11-26 01:51:00,48.9,33.0,30.09,West,281,3.0,5.0,54,0.00,,,0.00,weatherlink.com 1.10,2014-11-26 06:51:00,
2014-11-26 02:06:00,48.8,33.0,30.09,West,281,3.0,4.0,54,0.00,,,0.00,weatherlink.com 1.10,2014-11-26 07:06:00,
2014-11-26 02:21:00,48.5,33.0,30.09,West,281,4.0,4.0,54,0.00,,,0.00,weatherlink.com 1.10,2014-11-26 07:21:00,
2014-11-26 02:35:00,48.2,33.0,30.10,West,281,3.0,5.0,56,0.00,,,0.00,weatherlink.com 1.10,2014-11-26 07:35:00,
2014-11-26 02:50:00,48.2,34.0,30.11,West,281,3.0,7.0,57,0.00,,,0.00,weatherlink.com 1.10,2014-11-26 07:50:00,
2014-11-26 03:05:00,47.9,33.0,30.09,West,281,3.0,4.0,56,0.00,,,0.00,weatherlink.com 1.10,2014-11-26 08:05:00,
2014-11-26 03:20:00,47.7,33.0,30.11,West,281,4.0,6.0,57,0.00,,,0.00,weatherlink.com 1.10,2014-11-26 08:20:00,
2014-11-26 03:34:00,47.7,33.0,30.12,West,281,6.0,7.0,57,0.00,,,0.00,weatherlink.com 1.10,2014-11-26 08:34:00,
2014-11-26 03:49:00,47.7,33.0,30.12,West,281,4.0,4.0,57,0.00,,,0.00,weatherlink.com 1.10,2014-11-26 08:49:00,
2014-11-26 04:04:00,47.9,34.0,30.12,WNW,290,5.0,8.0,58,0.00,,,0.00,weatherlink.com 1.10,2014-11-26 09:04:00,
2014-11-26 04:19:00,47.9,33.0,30.11,WNW,291,4.0,7.0,57,0.00,,,0.00,weatherlink.com 1.10,2014-11-26 09:19:00,
2014-11-26 04:33:00,47.5,33.0,30.10,WNW,291,3.0,4.0,57,0.00,,,0.00,weatherlink.com 1.10,2014-11-26 09:33:00,
2014-11-26 04:48:00,47.0,34.0,30.09,WNW,291,2.0,3.0,60,0.00,,,0.00,weatherlink.com 1.10,2014-11-26 09:48:00,
2014-11-26 05:03:00,46.8,34.0,30.07,WNW,291,3.0,5.0,60,0.00,,,0.00,weatherlink.com 1.10,2014-11-26 10:03:00,
2014-11-26 05:18:00,46.8,35.0,30.07,WNW,300,3.0,7.0,63,0.00,,,0.00,weatherlink.com 1.10,2014-11-26 10:18:00,
2014-11-26 05:32:00,46.9,33.0,30.06,NW,321,8.0,8.0,59,0.00,,,0.00,weatherlink.com 1.10,2014-11-26 10:32:00,
2014-11-26 05:47:00,46.9,34.0,30.08,NW,325,2.0,6.0,61,0.00,,,0.00,weatherlink.com 1.10,2014-11-26 10:47:00,
2014-11-26 06:02:00,47.0,33.0,30.07,NNW,342,5.0,10.0,59,0.00,,,0.00,weatherlink.com 1.10,2014-11-26 11:02:00,
2014-11-26 06:17:00,47.1,33.0,30.08,NNW,343,4.0,6.0,58,0.00,,,0.00,weatherlink.com 1.10,2014-11-26 11:17:00,
2014-11-26 06:31:00,46.7,33.0,30.08,North,350,4.0,6.0,59,0.00,,,0.00,weatherlink.com 1.10,2014-11-26 11:31:00,
2014-11-26 06:46:00,46.1,35.0,30.07,North,350,2.0,5.0,66,0.00,,,0.00,weatherlink.com 1.10,2014-11-26 11:46:00,
2014-11-26 07:01:00,45.8,34.0,30.07,North,355,3.0,9.0,62,0.00,,,0.00,weatherlink.com 1.10,2014-11-26 12:01:00,
2014-11-26 07:16:00,45.2,35.0,30.07,North,355,2.0,6.0,67,0.00,,,0.00,weatherlink.com 1.10,2014-11-26 12:16:00,
2014-11-26 07:30:00,45.0,34.0,30.08,North,355,1.0,6.0,66,0.00,,,0.00,weatherlink.com 1.10,2014-11-26 12:30:00,
2014-11-26 07:45:00,44.7,35.0,30.07,North,355,3.0,4.0,68,0.00,,,0.00,weatherlink.com 1.10,2014-11-26 12:45:00,
2014-11-26 08:00:00,44.9,35.0,30.08,North,360,1.0,4.0,68,0.00,,,0.00,weatherlink.com 1.10,2014-11-26 13:00:00,
2014-11-26 08:15:00,44.7,36.0,30.11,North,360,0.0,4.0,70,0.01,,,0.01,weatherlink.com 1.10,2014-11-26 13:15:00,
2014-11-26 08:29:00,44.6,36.0,30.11,North,360,1.0,4.0,71,0.01,,,0.01,weatherlink.com 1.10,2014-11-26 13:29:00,
2014-11-26 08:44:00,44.6,36.0,30.11,North,360,0.0,4.0,72,0.01,,,0.01,weatherlink.com 1.10,2014-11-26 13:44:00,
2014-11-26 08:59:00,43.7,36.0,30.09,North,5,3.0,6.0,74,0.01,,,0.01,weatherlink.com 1.10,2014-11-26 13:59:00,
2014-11-26 09:14:00,43.4,36.0,30.09,NNE,27,5.0,9.0,76,0.00,,,0.01,weatherlink.com 1.10,2014-11-26 14:14:00,
2014-11-26 09:29:00,42.6,37.0,30.09,NNE,30,4.0,6.0,80,0.00,,,0.02,weatherlink.com 1.10,2014-11-26 14:29:00,
2014-11-26 09:44:00,41.4,37.0,30.05,NNE,28,1.0,11.0,84,0.02,,,0.03,weatherlink.com 1.10,2014-11-26 14:44:00,
2014-11-26 09:58:00,40.9,38.0,30.05,NNE,27,5.0,8.0,88,0.02,,,0.03,weatherlink.com 1.10,2014-11-26 14:58:00,
2014-11-26 10:13:00,40.7,38.0,30.04,NNE,30,1.0,9.0,90,0.03,,,0.04,weatherlink.com 1.10,2014-11-26 15:13:00,
2014-11-26 10:28:00,40.7,38.0,30.05,NNE,29,2.0,10.0,91,0.04,,,0.05,weatherlink.com 1.10,2014-11-26 15:28:00,
2014-11-26 10:43:00,40.7,39.0,30.06,NNE,24,6.0,9.0,92,0.03,,,0.06,weatherlink.com 1.10,2014-11-26 15:43:00,
2014-11-26 10:57:00,40.6,39.0,30.03,NNE,19,5.0,12.0,93,0.05,,,0.09,weatherlink.com 1.10,2014-11-26 15:57:00,
2014-11-26 11:13:00,40.4,39.0,30.02,NNE,21,9.0,10.0,93,0.09,,,0.13,weatherlink.com 1.10,2014-11-26 16:13:00,
2014-11-26 11:27:00,40.2,39.0,30.00,NE,37,3.0,9.0,94,0.11,,,0.16,weatherlink.com 1.10,2014-11-26 16:27:00,
2014-11-26 11:42:00,40.4,39.0,30.00,North,5,5.0,11.0,94,0.12,,,0.18,weatherlink.com 1.10,2014-11-26 16:42:00,
2014-11-26 11:57:00,40.3,39.0,29.99,North,360,6.0,11.0,94,0.13,,,0.21,weatherlink.com 1.10,2014-11-26 16:57:00,
2014-11-26 12:12:00,40.1,39.0,29.98,North,360,9.0,12.0,94,0.10,,,0.23,weatherlink.com 1.10,2014-11-26 17:12:00,
2014-11-26 12:27:00,39.5,38.0,29.92,North,11,4.0,15.0,94,0.11,,,0.27,weatherlink.com 1.10,2014-11-26 17:27:00,
2014-11-26 12:42:00,39.1,38.0,29.92,NNE,15,3.0,10.0,94,0.11,,,0.29,weatherlink.com 1.10,2014-11-26 17:42:00,